Waarnemingen

Advertentie
Mijn weer
Santander/Parayas, Spanje (8021): temperatuur & dauwpunt: 15.10.2019 12:00:00 - 21.10.2019 12:00:00 (CEST)Santander/Parayas, Spanje (8021): windsnelheid: 15.10.2019 12:00:00 - 21.10.2019 12:00:00 (CEST)Santander/Parayas, Spanje (8021): windrichting: 15.10.2019 12:00:00 - 21.10.2019 12:00:00 (CEST)Santander/Parayas, Spanje (8021): luchtdruk: 15.10.2019 12:00:00 - 21.10.2019 12:00:00 (CEST)Santander/Parayas, Spanje (8021): zicht: 15.10.2019 12:00:00 - 21.10.2019 12:00:00 (CEST)
Datum & Tijd tt [°C] td [°C] ff [km/u] ff [kn] dd ppp [hPa] vv [km]
21.10.2019 12:00:00 - - - - - - -
21.10.2019 11:00:00 14,4 9,4 13 7 ZZW 1019,1 25
21.10.2019 10:00:00 11,6 8,3 11 6 ZZW 1018,7 -
21.10.2019 09:00:00 10,8 8,4 5 3 ZW 1018,0 -
21.10.2019 08:00:00 11,2 8,0 18 10 ZZW 1017,6 20
21.10.2019 07:00:00 10,7 7,9 15 8 ZZW 1017,3 -
21.10.2019 06:00:00 10,6 8,2 9 5 Z 1016,9 -
21.10.2019 05:00:00 10,9 8,3 5 3 ZO 1016,9 -
21.10.2019 04:00:00 11,0 8,2 13 7 ZZW 1016,8 -
21.10.2019 03:00:00 10,7 8,1 13 7 ZZW 1016,7 -
21.10.2019 02:00:00 10,6 8,2 13 7 ZZW 1016,1 -
21.10.2019 01:00:00 10,9 8,6 15 8 ZZW 1016,1 -
21.10.2019 00:00:00 11,0 8,9 11 6 ZW 1016,1 -
20.10.2019 23:00:00 11,6 9,3 15 8 ZW 1016,0 15
20.10.2019 22:00:00 11,3 9,9 18 10 ZZW 1014,7 -
20.10.2019 21:00:00 11,4 10,1 15 8 ZZW 1014,3 -
20.10.2019 20:00:00 12,1 10,2 16 9 ZW 1013,7 25
20.10.2019 19:00:00 12,0 10,7 15 8 ZW 1012,5 -
20.10.2019 18:00:00 11,9 11,0 8 4 ZZW 1012,3 -
20.10.2019 17:00:00 11,8 10,9 22 12 ZZW 1011,6 15
20.10.2019 16:00:00 11,9 10,8 15 8 ZZW 1011,1 -
20.10.2019 15:00:00 12,2 10,8 13 7 ZW 1010,6 -
20.10.2019 14:00:00 12,5 11,2 16 9 ZW 1010,4 20
20.10.2019 13:00:00 12,0 11,1 15 8 ZZW 1010,4 -
20.10.2019 12:00:00 12,0 10,9 11 6 ZW 1010,2 -
20.10.2019 11:00:00 11,3 10,2 11 6 ZW 1009,7 -
20.10.2019 10:00:00 11,0 10,2 22 12 WZW 1008,9 -
20.10.2019 09:00:00 11,8 11,6 11 6 WZW 1007,9 -
20.10.2019 08:00:00 11,7 11,2 9 5 W 1007,2 10
20.10.2019 07:00:00 12,1 11,5 15 8 WNW 1006,1 -
20.10.2019 06:00:00 13,6 12,3 11 6 N 1005,0 -
20.10.2019 05:00:00 13,6 12,5 8 4 N 1004,4 -
20.10.2019 04:00:00 13,1 12,8 5 3 N 1004,3 -
20.10.2019 03:00:00 12,8 12,8 4 2 ZW 1004,3 -
20.10.2019 02:00:00 12,9 12,7 9 5 ZW 1004,4 -
20.10.2019 01:00:00 13,2 13,0 5 3 WNW 1004,5 -
20.10.2019 00:00:00 12,9 12,7 8 4 ZW 1004,4 -
19.10.2019 23:00:00 13,4 13,2 5 3 ZZW 1004,5 -
19.10.2019 22:00:00 13,8 13,5 8 4 WZW 1004,4 -
19.10.2019 21:00:00 13,9 13,6 8 4 Z 1004,7 -
19.10.2019 20:00:00 14,0 13,4 4 2 W 1004,8 4,0
19.10.2019 19:00:00 14,2 13,6 13 7 NNW 1003,9 -
19.10.2019 18:00:00 15,4 14,6 5 3 WNW 1004,0 -
19.10.2019 17:00:00 15,4 14,4 5 3 N 1004,3 8
19.10.2019 16:00:00 15,9 14,8 9 5 NNW 1004,2 -
19.10.2019 15:00:00 15,8 14,8 11 6 NNW 1005,0 -
19.10.2019 14:00:00 16,2 15,2 9 5 NNW 1006,1 9
19.10.2019 13:00:00 16,6 15,6 8 4 N 1006,2 -
19.10.2019 12:00:00 16,3 15,2 4 2 W 1006,9 -
19.10.2019 11:00:00 16,4 14,9 2 1 ZW 1007,1 -
19.10.2019 10:00:00 15,5 14,5 2 1 WZW 1007,1 -
19.10.2019 09:00:00 14,7 13,7 9 5 ZZW 1007,2 -
19.10.2019 08:00:00 14,1 13,0 4 2 WNW 1007,3 12
19.10.2019 07:00:00 14,5 13,2 8 4 WZW 1007,1 -
19.10.2019 06:00:00 13,9 13,4 9 5 W 1006,9 -
19.10.2019 05:00:00 14,0 13,2 0 0 N 1007,2 -
19.10.2019 04:00:00 14,2 13,2 4 2 Z 1007,9 -
19.10.2019 03:00:00 14,2 13,4 5 3 W 1008,4 -
19.10.2019 02:00:00 14,1 13,3 4 2 WNW 1009,0 -
19.10.2019 01:00:00 14,6 13,3 5 3 ZW 1009,6 -
19.10.2019 00:00:00 15,1 13,0 4 2 W 1010,1 -
18.10.2019 23:00:00 15,1 13,1 5 3 ZZW 1010,3 25
18.10.2019 22:00:00 16,4 13,5 8 4 ONO 1010,7 -
18.10.2019 21:00:00 16,1 13,2 4 2 OZO 1011,3 -
18.10.2019 20:00:00 16,6 12,5 8 4 O 1011,6 25
18.10.2019 19:00:00 17,2 12,1 8 4 O 1012,3 -
18.10.2019 18:00:00 18,1 11,6 9 5 NO 1013,3 -
18.10.2019 17:00:00 18,7 10,6 11 6 NO 1013,5 30
18.10.2019 16:00:00 19,3 10,1 11 6 N 1013,8 -
18.10.2019 15:00:00 20,2 11,5 2 1 NNW 1014,6 -
18.10.2019 14:00:00 20,3 11,6 9 5 WZW 1015,3 30
18.10.2019 13:00:00 19,6 11,3 11 6 WZW 1015,9 -
18.10.2019 12:00:00 19,0 13,8 8 4 ZW 1016,1 -
18.10.2019 11:00:00 16,7 14,2 8 4 ZZW 1016,5 20
18.10.2019 10:00:00 16,0 13,5 9 5 ZW 1016,5 -
18.10.2019 09:00:00 16,3 13,2 11 6 ZZW 1016,1 -
18.10.2019 08:00:00 16,1 13,8 11 6 ZZW 1015,7 25
18.10.2019 07:00:00 16,1 13,9 11 6 ZZW 1015,5 -
18.10.2019 06:00:00 15,9 14,4 9 5 ZZW 1015,1 -
18.10.2019 05:00:00 15,8 14,6 11 6 ZZW 1014,9 -
18.10.2019 04:00:00 16,0 14,7 8 4 Z 1015,0 -
18.10.2019 03:00:00 16,1 14,6 9 5 ZZW 1015,0 -
18.10.2019 02:00:00 16,1 14,8 2 1 W 1014,9 -
18.10.2019 01:00:00 16,1 14,5 4 2 WZW 1014,7 -
18.10.2019 00:00:00 16,2 14,7 8 4 ZZW 1015,2 -
17.10.2019 23:00:00 16,4 14,9 4 2 ZZW 1015,3 20
17.10.2019 22:00:00 16,5 14,9 4 2 Z 1015,1 -
17.10.2019 21:00:00 16,8 15,1 4 2 WZW 1015,1 -
17.10.2019 20:00:00 16,9 14,9 8 4 ZZW 1015,0 20
17.10.2019 19:00:00 17,4 14,9 8 4 ZZW 1015,0 -
17.10.2019 18:00:00 17,7 15,0 8 4 ZW 1015,0 -
17.10.2019 17:00:00 17,7 15,0 13 7 WNW 1014,9 20
17.10.2019 16:00:00 17,7 15,1 11 6 NW 1014,8 -
17.10.2019 15:00:00 18,4 16,2 21 11 NW 1014,4 -
17.10.2019 14:00:00 21,3 16,9 18 10 N 1013,8 30
17.10.2019 13:00:00 21,1 16,9 13 7 NO 1013,3 -
17.10.2019 12:00:00 21,4 16,8 4 2 NO 1013,9 -
17.10.2019 11:00:00 20,5 17,3 0 0 N 1014,1 30
17.10.2019 10:00:00 16,8 15,5 5 3 ZW 1014,3 -
17.10.2019 09:00:00 16,9 14,9 8 4 ZW 1013,4 -
17.10.2019 08:00:00 16,9 12,7 11 6 ZW 1012,2 20
17.10.2019 07:00:00 17,8 12,6 16 9 ZZW 1011,0 -
17.10.2019 06:00:00 17,8 13,1 24 13 Z 1010,9 -
17.10.2019 05:00:00 16,9 14,0 21 11 Z 1011,5 -
17.10.2019 04:00:00 16,8 14,4 21 11 ZZW 1012,4 -
17.10.2019 03:00:00 18,5 13,6 29 16 ZZW 1012,2 -
17.10.2019 02:00:00 19,7 12,7 28 15 Z 1011,5 -
17.10.2019 01:00:00 20,2 12,4 35 19 ZZW 1011,3 -
17.10.2019 00:00:00 19,6 12,6 29 16 ZZW 1011,6 -
16.10.2019 23:00:00 18,2 13,5 29 16 Z 1011,8 12
16.10.2019 22:00:00 19,3 12,9 26 14 Z 1012,3 -
16.10.2019 21:00:00 18,0 13,1 18 10 Z 1012,6 -
16.10.2019 20:00:00 18,3 13,3 22 12 Z 1012,7 9
16.10.2019 19:00:00 20,8 11,1 29 16 ZZW 1011,9 -
16.10.2019 18:00:00 21,6 11,3 26 14 Z 1011,0 -
16.10.2019 17:00:00 22,1 11,0 35 19 Z 1011,1 30
16.10.2019 16:00:00 21,3 11,1 34 18 Z 1011,3 -
16.10.2019 15:00:00 22,5 11,2 31 17 Z 1011,6 -
16.10.2019 14:00:00 22,3 11,4 34 18 Z 1011,9 30
16.10.2019 13:00:00 19,6 11,4 34 18 Z 1012,1 -
16.10.2019 12:00:00 17,3 11,8 26 14 Z 1012,8 -
16.10.2019 11:00:00 16,7 11,7 26 14 Z 1013,8 20
16.10.2019 10:00:00 17,8 10,4 26 14 Z 1013,6 -
16.10.2019 09:00:00 18,2 9,5 35 19 Z 1012,6 -
16.10.2019 08:00:00 18,1 9,3 34 18 Z 1012,4 20
16.10.2019 07:00:00 18,1 9,4 35 19 Z 1012,3 -
16.10.2019 06:00:00 18,3 9,6 35 19 Z 1012,4 -
16.10.2019 05:00:00 18,2 9,6 34 18 Z 1012,8 -
16.10.2019 04:00:00 18,0 9,6 34 18 Z 1013,4 -
16.10.2019 03:00:00 17,9 9,4 28 15 Z 1013,8 -
16.10.2019 02:00:00 18,0 9,1 22 12 Z 1014,1 -
16.10.2019 01:00:00 17,5 8,6 16 9 Z 1014,7 -
16.10.2019 00:00:00 17,1 8,8 15 8 Z 1015,7 -
15.10.2019 23:00:00 17,2 8,9 11 6 Z 1016,1 40
15.10.2019 22:00:00 17,9 9,0 15 8 Z 1016,0 -
15.10.2019 21:00:00 18,1 8,4 13 7 Z 1016,1 -
15.10.2019 20:00:00 18,6 7,4 21 11 Z 1016,1 40
15.10.2019 19:00:00 19,2 8,1 16 9 Z 1015,7 -
15.10.2019 18:00:00 20,7 7,4 13 7 Z 1015,8 -
15.10.2019 17:00:00 20,6 7,1 15 8 Z 1016,1 40
15.10.2019 16:00:00 20,9 7,8 13 7 Z 1016,5 -
15.10.2019 15:00:00 21,3 6,5 13 7 ZW 1016,9 -
15.10.2019 14:00:00 20,7 6,2 11 6 ZW 1017,0 40
15.10.2019 13:00:00 20,1 5,9 13 7 WZW 1017,6 -
15.10.2019 12:00:00 18,4 6,8 15 8 ZW 1018,0 -

tt = temperatuur
td = dauwpunt
ff = windsnelheid
dd = windrichting
ppp = luchtdruk
vv = zicht

Weerstations in de omgeving